Location: Meanaryar
(48.4161°N, 4.7315°W)
Time: 11:36:27
(UTC+00:00)

Meteor 1-12 Rocket - Pass Details

Date: 18 September 2020
Orbit: 854 x 927 km, 81.2° (Epoch: 24 October)

Event Time Altitude Azimuth Distance (km) Brightness Sun altitude
Rises 19:49:57 0° 185° (S) 3,538 7.3 -14.7°
Reaches altitude 10° 19:52:25 10° 184° (S) 2,592 6.6 -15.1°
Maximum altitude 19:58:20 78° 99° (E) 923 4.2 -16.0°
Drops below altitude 10° 20:04:10 10° 14° (NNE) 2,561 6.8 -16.9°
Sets 20:06:36 0° 13° (NNE) 3,494 7.5 -17.3°
